Location: Newark
(47.5575°N, 10.7497°E)
Time: 08:56:10
(UTC+00:00)

Envisat - Visible Passes

Search period start: 20 September 2020 00:00
Search period end: 30 September 2020 00:00
Orbit: 764 x 766 km, 98.1° (Epoch: 20 September)

Date Brightness Start Highest point End Pass type
(mag) Time Alt. Az. Time Alt. Az. Time Alt. Az.
20 Sep 6.2 17:54:42 10° SW 17:57:44 16° W 18:00:47 10° NW visible
21 Sep 6.0 04:19:25 10° NE 04:23:11 20° E 04:26:56 10° SE visible
23 Sep 6.1 17:42:36 10° SW 17:46:14 20° W 17:49:54 10° NW visible
24 Sep 6.1 04:08:31 10° NE 04:11:42 17° E 04:14:52 10° SE visible
25 Sep 6.6 18:10:24 10° WSW 18:12:02 11° W 18:13:40 10° WNW visible
26 Sep 5.5 04:33:06 10° NE 04:37:25 27° E 04:41:42 10° SSE visible
26 Sep 5.8 17:30:40 10° SW 17:34:45 24° W 17:38:52 10° NW visible
27 Sep 6.3 03:57:49 10° ENE 04:00:11 13° E 04:02:33 10° ESE visible
28 Sep 6.3 17:57:45 10° WSW 18:00:31 15° W 18:03:16 10° NW visible
29 Sep 5.9 04:22:00 10° NE 04:25:57 22° E 04:29:51 10° SE visible
